Sauk Centre, MN

6:31 AM CDT on October 16, 2019 (GMT -0500)
Sauk Centre

Weather History for KD39 - August, 2019

Change the Weather History Date:

Thursday, August 15, 2019

  Actual Average (WUND) Record (WUND)
Temperature  
Mean Temperature 65 °F -  
Max Temperature 76 °F - - (-1)
Min Temperature 54 °F - - (-1)
Growing Degree Days 15 (Base 50)    
Moisture  
Dew Point 58 °F    
Average Humidity 79    
Maximum Humidity 100    
Minimum Humidity 47    
Precipitation  
Precipitation 0.18 in - - ()
Sea Level Pressure  
Sea Level Pressure 29.96 in    
Wind  
Wind Speed 3 mph (South)    
Max Wind Speed 14 mph    
Max Gust Speed 18 mph    
Visibility 10 miles    
Events Fog , Rain , Thunderstorm    
Averages and records for this station are not official NWS values.
T = Trace of Precipitation, MM = Missing Value Source: NWS Daily Summary

Daily Weather History Graph

Daily Weather History Graph

Search for Another Location

Airport or City:

Astronomy

Aug. 15, 2019 Rise Set
Actual Time 6:19 AM CDT 8:27 PM CDT
Civil Twilight 5:47 AM CDT 9:00 PM CDT
Nautical Twilight 5:06 AM CDT 9:40 PM CDT
Astronomical Twilight 4:22 AM CDT 10:24 PM CDT
Moon 8:57 PM CDT (8/15) 6:12 AM CDT (8/15)
Length of Visible Light 15h 13m
Length of Day
14h 08m
Full, 100% of the Moon is Illuminated
Aug 15
Full
Aug 23
Last Quarter
Aug 30
New
Sep 5
First Quarter
Sep 13
Full

Hourly Weather History & Observations

Time (CDT) Temp. Dew Point Humidity Pressure Visibility Wind Dir Wind Speed Gust Speed Precip Events Conditions
12:15 AM 62.1 °F 59.5 °F 91% 30.08 in 10.0 mi Calm Calm - N/A   Mostly Cloudy
12:16 AM 62.1 °F 59.5 °F 91% 30.08 in 10.0 mi Calm Calm - N/A   Mostly Cloudy
12:38 AM 61.7 °F 60.1 °F 94% 30.07 in 10.0 mi Calm Calm - N/A   Mostly Cloudy
12:55 AM 60.4 °F 59.0 °F 95% 30.07 in 10.0 mi SSE 3.5 mph - N/A   Mostly Cloudy
1:15 AM 59.4 °F 58.6 °F 97% 30.07 in 10.0 mi Calm Calm - N/A   Overcast
1:35 AM 59.9 °F 59.0 °F 97% 30.07 in 10.0 mi Calm Calm - N/A   Mostly Cloudy
1:39 AM 59.9 °F 59.0 °F 97% 30.07 in 10.0 mi Calm Calm - N/A   Mostly Cloudy
1:58 AM 59.5 °F 58.6 °F 97% 30.06 in 10.0 mi Calm Calm - N/A   Mostly Cloudy
2:15 AM 59.2 °F 58.3 °F 97% 30.06 in 10.0 mi Calm Calm - N/A   Scattered Clouds
2:37 AM 58.6 °F 57.7 °F 97% 30.05 in 10.0 mi Calm Calm - N/A   Clear
2:55 AM 58.5 °F 58.1 °F 99% 30.05 in 10.0 mi Calm Calm - N/A   Clear
2:56 AM 58.6 °F 58.1 °F 98% 30.05 in 7.0 mi Calm Calm - N/A   Clear
3:15 AM 57.4 °F 56.8 °F 98% 30.05 in 2.0 mi Calm Calm - N/A   Scattered Clouds
3:16 AM 57.2 °F 56.7 °F 98% 30.05 in 2.0 mi Calm Calm - N/A   Scattered Clouds
3:38 AM 56.1 °F 55.8 °F 99% 30.05 in 0.5 mi Calm Calm - N/A Fog Fog
3:56 AM 55.4 °F 55.0 °F 99% 30.05 in 0.8 mi Calm Calm - N/A   Overcast
4:16 AM 55.6 °F 55.4 °F 99% 30.05 in 2.0 mi Calm Calm - N/A   Overcast
4:35 AM 56.3 °F 56.1 °F 99% 30.05 in 10.0 mi Calm Calm - N/A   Overcast
4:36 AM 56.3 °F 56.1 °F 99% 30.05 in 10.0 mi Calm Calm - N/A   Overcast
4:55 AM 56.3 °F 56.3 °F 100% 30.05 in 10.0 mi Calm Calm - N/A   Mostly Cloudy
4:59 AM 56.3 °F 56.3 °F 100% 30.05 in 10.0 mi Calm Calm - N/A   Mostly Cloudy
5:17 AM 56.1 °F 55.8 °F 99% 30.05 in 10.0 mi Calm Calm - N/A   Mostly Cloudy
5:36 AM 56.3 °F 55.9 °F 99% 30.04 in 3.0 mi Calm Calm - N/A   Clear
5:55 AM 55.4 °F 55.4 °F 100% 30.04 in 10.0 mi Calm Calm - N/A   Clear
6:15 AM 55.6 °F 55.4 °F 99% 30.04 in 10.0 mi Calm Calm - N/A   Clear
6:19 AM 55.0 °F 54.9 °F 99% 30.04 in 10.0 mi Calm Calm - N/A   Clear
6:39 AM 54.7 °F 54.5 °F 99% 30.04 in 10.0 mi Calm Calm - N/A   Clear
6:56 AM 54.0 °F 53.8 °F 99% 30.04 in 10.0 mi Calm Calm - N/A   Clear
7:15 AM 55.4 °F 55.0 °F 99% 30.04 in 10.0 mi Calm Calm - N/A   Clear
7:16 AM 55.4 °F 55.2 °F 99% 30.04 in 10.0 mi Calm Calm - N/A   Clear
7:35 AM 57.0 °F 56.8 °F 99% 30.04 in 10.0 mi Calm Calm - N/A   Clear
7:36 AM 57.2 °F 57.0 °F 99% 30.04 in 10.0 mi Calm Calm - N/A   Clear
7:55 AM 58.3 °F 57.9 °F 99% 30.04 in 10.0 mi Calm Calm - N/A   Clear
7:59 AM 58.6 °F 58.3 °F 99% 30.04 in 10.0 mi Calm Calm - N/A   Clear
8:18 AM 59.9 °F 58.6 °F 96% 30.04 in 10.0 mi Calm Calm - N/A   Clear
8:35 AM 61.5 °F 59.0 °F 91% 30.03 in 10.0 mi Calm Calm - N/A   Clear
8:55 AM 64.6 °F 58.6 °F 81% 30.02 in 10.0 mi South 6.9 mph - N/A   Clear
9:15 AM 66.2 °F 58.3 °F 76% 30.02 in 10.0 mi SSE 5.8 mph - N/A   Clear
9:16 AM 66.2 °F 58.3 °F 76% 30.02 in 10.0 mi SSE 5.8 mph - N/A   Clear
9:35 AM 67.6 °F 58.8 °F 73% 30.01 in 10.0 mi SE 5.8 mph - N/A   Clear
9:40 AM 68.0 °F 58.6 °F 72% 30.01 in 10.0 mi South 4.6 mph - N/A   Clear
9:57 AM 68.9 °F 58.6 °F 70% 30.00 in 10.0 mi South 4.6 mph - N/A   Clear
10:16 AM 69.6 °F 58.8 °F 68% 30.00 in 10.0 mi South 4.6 mph - N/A   Clear
10:35 AM 70.7 °F 59.2 °F 67% 30.01 in 10.0 mi South 6.9 mph - N/A   Clear
10:36 AM 70.7 °F 59.2 °F 67% 30.01 in 10.0 mi South 5.8 mph - N/A   Clear
10:55 AM 70.7 °F 59.0 °F 66% 30.00 in 10.0 mi SSW 5.8 mph - N/A   Clear
10:56 AM 70.5 °F 58.8 °F 66% 30.00 in 10.0 mi SSW 5.8 mph - N/A   Clear
11:18 AM 72.0 °F 58.5 °F 62% 29.99 in 10.0 mi SSW 4.6 mph - N/A   Scattered Clouds
11:37 AM 72.3 °F 57.4 °F 59% 29.99 in 10.0 mi SW 6.9 mph - N/A   Scattered Clouds
11:56 AM 72.9 °F 57.0 °F 57% 29.98 in 10.0 mi Calm Calm - N/A   Clear
12:15 PM 73.2 °F 58.3 °F 59% 29.98 in 10.0 mi SSW 5.8 mph - N/A   Clear
12:16 PM 73.2 °F 58.1 °F 59% 29.98 in 10.0 mi SSW 4.6 mph - N/A   Clear
12:35 PM 73.0 °F 57.6 °F 58% 29.97 in 10.0 mi South 10.4 mph - N/A   Scattered Clouds
12:36 PM 73.2 °F 57.6 °F 58% 29.97 in 10.0 mi South 9.2 mph - N/A   Scattered Clouds
12:58 PM 74.5 °F 58.1 °F 57% 29.97 in 10.0 mi South 9.2 mph - N/A   Scattered Clouds
1:16 PM 74.7 °F 57.7 °F 55% 29.95 in 10.0 mi South 4.6 mph - N/A   Scattered Clouds
1:35 PM 75.0 °F 58.3 °F 56% 29.95 in 10.0 mi SSW 6.9 mph - N/A   Scattered Clouds
1:56 PM 74.7 °F 57.0 °F 54% 29.94 in 10.0 mi South 9.2 mph - N/A   Scattered Clouds
2:15 PM 76.1 °F 57.0 °F 51% 29.94 in 10.0 mi SSW 5.8 mph - N/A   Scattered Clouds
2:16 PM 76.1 °F 56.8 °F 51% 29.94 in 10.0 mi SW 4.6 mph - N/A   Scattered Clouds
2:35 PM 75.2 °F 56.7 °F 52% 29.93 in 10.0 mi SSW 4.6 mph - N/A   Scattered Clouds
2:36 PM 75.0 °F 56.7 °F 53% 29.93 in 10.0 mi SSW 5.8 mph - N/A   Scattered Clouds
2:58 PM 74.1 °F 57.0 °F 55% 29.92 in 10.0 mi SSE 6.9 mph - N/A   Scattered Clouds
3:16 PM 75.0 °F 57.7 °F 55% 29.92 in 10.0 mi South 4.6 mph - N/A   Scattered Clouds
3:35 PM 76.3 °F 56.7 °F 51% 29.92 in 10.0 mi SSW 5.8 mph - N/A   Scattered Clouds
3:36 PM 76.5 °F 57.0 °F 51% 29.92 in 10.0 mi SSW 6.9 mph - N/A   Scattered Clouds
3:55 PM 74.7 °F 56.1 °F 52% 29.91 in 10.0 mi SW 9.2 mph - N/A   Scattered Clouds
3:56 PM 74.8 °F 56.3 °F 52% 29.91 in 10.0 mi SSW 8.1 mph - N/A   Scattered Clouds
4:15 PM 76.5 °F 55.2 °F 48% 29.91 in 10.0 mi South 9.2 mph - N/A   Scattered Clouds
4:20 PM 76.5 °F 55.9 °F 49% 29.90 in 10.0 mi South 9.2 mph - N/A   Scattered Clouds
4:37 PM 75.0 °F 55.6 °F 51% 29.90 in 10.0 mi South 9.2 mph - N/A   Clear
4:55 PM 76.6 °F 55.2 °F 47% 29.89 in 10.0 mi SSW 11.5 mph - N/A   Clear
5:15 PM 76.1 °F 56.1 °F 50% 29.89 in 10.0 mi South 6.9 mph - N/A   Scattered Clouds
5:35 PM 73.9 °F 57.2 °F 56% 29.88 in 10.0 mi SSW 6.9 mph - N/A   Scattered Clouds
5:36 PM 73.8 °F 57.2 °F 56% 29.88 in 10.0 mi SSW 6.9 mph - N/A   Scattered Clouds
5:59 PM 72.7 °F 58.6 °F 61% 29.89 in 10.0 mi SSW 8.1 mph - N/A   Scattered Clouds
6:16 PM 71.8 °F 60.1 °F 67% 29.89 in 10.0 mi South 4.6 mph - N/A   Scattered Clouds
6:35 PM 70.3 °F 60.8 °F 72% 29.88 in 10.0 mi South 4.6 mph - N/A   Scattered Clouds
6:36 PM 70.2 °F 60.8 °F 72% 29.88 in 10.0 mi SSE 3.5 mph - N/A   Clear
6:55 PM 69.3 °F 61.7 °F 77% 29.87 in 10.0 mi SE 3.5 mph - N/A   Clear
6:56 PM 69.1 °F 61.7 °F 77% 29.87 in 10.0 mi SE 3.5 mph - N/A   Clear
7:15 PM 68.4 °F 61.7 °F 79% 29.86 in 10.0 mi SE 3.5 mph - N/A   Scattered Clouds
7:20 PM 68.4 °F 61.3 °F 78% 29.86 in 10.0 mi Calm Calm - N/A   Scattered Clouds
7:37 PM 68.0 °F 61.3 °F 79% 29.85 in 10.0 mi SE 4.6 mph - N/A   Mostly Cloudy
7:55 PM 67.3 °F 60.8 °F 80% 29.84 in 10.0 mi SE 5.8 mph - N/A Rain Light Rain
8:15 PM 66.7 °F 60.6 °F 81% 29.83 in 10.0 mi SE 5.8 mph - N/A Rain Light Rain
8:35 PM 67.5 °F 60.3 °F 78% 29.81 in 10.0 mi East 5.8 mph - N/A Rain Light Rain
8:36 PM 67.5 °F 60.3 °F 78% 29.81 in 10.0 mi East 5.8 mph - N/A Rain Light Rain
8:58 PM 66.0 °F 61.0 °F 84% 29.82 in 10.0 mi SE 5.8 mph - N/A   Light Drizzle
9:16 PM 65.8 °F 60.8 °F 84% 29.81 in 10.0 mi SE 6.9 mph - N/A Rain , Thunderstorm Light Thunderstorms and Rain
9:36 PM 65.5 °F 61.3 °F 86% 29.81 in 10.0 mi SE 6.9 mph - 0.01 in Rain Light Rain
9:55 PM 64.8 °F 61.7 °F 90% 29.81 in 10.0 mi SSE 11.5 mph - 0.02 in Rain Rain
10:37 PM 60.8 °F 59.2 °F 94% 29.83 in 10.0 mi SSW 13.8 mph 18.4 mph 0.09 in Rain Rain
10:56 PM 59.9 °F 58.6 °F 96% 29.83 in 10.0 mi SSW 9.2 mph - 0.12 in Rain Light Rain
11:15 PM 59.9 °F 58.5 °F 95% 29.83 in 10.0 mi SSW 6.9 mph - 0.02 in Rain Light Rain
11:16 PM 59.9 °F 58.5 °F 95% 29.83 in 10.0 mi SSW 6.9 mph - 0.02 in Rain Light Rain
11:35 PM 59.9 °F 58.6 °F 96% 29.82 in 10.0 mi Calm Calm - 0.03 in Rain Light Rain
11:59 PM 59.9 °F 58.8 °F 96% 29.82 in 10.0 mi Calm Calm - 0.04 in Rain Light Rain